Home > Weather > Sunrise Manor > Past weeks

Flag for U.S.A. Weather for the Past 2 Weeks in Sunrise Manor, Nevada, U.S.A.

Now
73 °F

Sunny.


Feels Like: 75 °F
Forecast: 43 / 74 °F
Wind: 5 mph from East

Location: Nellis Air Force Base

Current Time: Feb 12, 2016 at 5:24:18 PM

Latest Report: Feb 12, 2016 at 3:58 PM


Visibility: 10 mi

Pressure: 30.10 "Hg (28.23 "Hg at 555m altitude)

Humidity: 17%

Dew point: 26 °F

Location of Sunrise ManorLocation

Historic Weather in Sunrise Manor — Graph

°F

Sunrise Manor Temperature Yesterday

Maximum temperature yesterday: 73 °F (at 2:59 PM)
Minimum temperature yesterday: 39 °F (at 6:58 AM)
Average temperature yesterday: 54 °F

High & Low Weather Summary for the Past Weeks

 TemperatureHumidityPressure
High74 °F (Feb 12, 2:58 PM)93% (Jan 31, 3:58 PM)30.54 "Hg (Jan 31, 3:58 PM)
Low30 °F (Feb 3, 4:58 AM)16% (Feb 7, 2:58 PM)29.35 "Hg (Jan 31, 8:58 PM)
Average50 °F44%30.18 "Hg
* Reported Jan 28 3:58 PM — Feb 12 3:58 PM, Sunrise Manor, Weather by CustomWeather, © 2016

Note: Actual official high and low records may vary slightly from our data, if they occured in-between our weather recording intervals... More about our weather records

Advertising

Sunrise Manor Weather History for the Previous 24 Hours

 ConditionsComfort  
Time TempWeatherWind HumidityBarometerVisibility
3:58 PM
Fri, Feb 12
73 °FSunny.5 mph17%30.10 "Hg10 mi
2:58 PM74 °FSunny.6 mph16%30.11 "Hg10 mi
1:58 PM73 °FSunny.1 mph20%30.13 "Hg10 mi
12:58 PM71 °FSunny.No wind21%30.16 "Hg10 mi
11:58 AM66 °FSunny.No wind24%30.20 "Hg10 mi
10:58 AM62 °FSunny.No wind28%30.24 "Hg10 mi
9:58 AM54 °FSunny.No wind37%30.26 "Hg10 mi
8:58 AM49 °FSunny.No wind47%30.28 "Hg10 mi
7:58 AM42 °FSunny.1 mph61%30.27 "Hg10 mi
6:58 AM41 °FSunny.5 mph63%30.26 "Hg10 mi
5:58 AM38 °FClear.No wind68%30.24 "Hg10 mi
4:58 AM41 °FClear.No wind61%30.22 "Hg10 mi
3:58 AM41 °FClear.No wind65%30.20 "Hg10 mi
2:58 AM44 °FClear.No wind58%30.21 "Hg10 mi
1:58 AM45 °FClear.No wind56%30.21 "Hg10 mi
12:58 AM44 °FClear.1 mph58%30.21 "Hg10 mi
11:58 PM
Thu, Feb 11
48 °FClear.3 mph49%30.20 "Hg10 mi
10:58 PM49 °FClear.1 mph51%30.20 "Hg10 mi
9:58 PM50 °FClear.No wind49%30.21 "Hg10 mi
8:58 PM52 °FClear.2 mph45%30.20 "Hg10 mi
7:58 PM54 °FClear.6 mph42%30.20 "Hg10 mi
6:58 PM60 °FClear.7 mph32%30.19 "Hg10 mi
5:58 PM64 °FClear.7 mph27%30.18 "Hg10 mi
Weather by CustomWeather, © 2016

See weather overviewHow to use our weather pages